Temperature
34 34 34 34 35 35 34 34 33 34 36 35 34 33 33 33 33 32 31 30 28 28 27 26 25 24 23 22 21 21 20 20 20 19 19 19 19 19 19 19 19 18 18 18
34 34 34 35 35 35 34 34 34 34 36 35 34 34 34 34 33 32 31 30 29 28 27 26 25 24 23 22 21 21 20 20 20 20 20 19 19 19 19 19 19 18 18 18
33 34 35 35 34 35 34 34 34 34 35 36 34 33 33 33 33 32 32 31 30 29 27 26 25 24 24 22 22 21 21 20 20 20 20 19 19 19 19 19 19 19 18 18
34 35 35 34 34 35 34 35 35 35 34 34 34 31 31 31 31 32 32 31 30 29 28 26 25 25 24 23 22 21 21 21 20 20 19 19 19 19 19 19 19 19 18 18
34 34 34 34 35 35 35 36 35 35 34 33 33 32 31 30 30 31 31 31 31 30 29 27 26 25 24 23 22 22 21 21 21 20 20 20 19 19 19 19 19 19 19 18
34 35 35 35 35 35 35 35 35 34 34 32 32 32 30 31 30 30 31 31 31 30 29 28 26 25 25 24 23 22 21 21 21 20 20 20 19 19 19 19 19 19 19 19
33 34 35 35 34 35 35 33 32 31 31 31 32 32 31 32 32 31 31 31 31 30 29 28 27 25 25 24 23 22 21 21 21 20 20 20 20 19 19 19 19 19 19 19
32 32 34 35 34 33 34 33 31 30 30 30 30 30 32 33 33 33 32 31 31 30 29 28 27 26 25 24 23 22 21 21 21 21 20 20 20 20 19 19 19 19 19 19
32 32 35 35 35 34 33 33 34 32 31 30 30 30 31 33 33 33 32 31 31 29 29 28 27 26 25 24 23 22 21 21 21 21 20 20 20 20 19 19 19 19 19 19
33 32 34 35 35 34 34 34 33 32 30 29 29 30 30 31 32 32 32 31 30 29 29 28 27 26 25 24 23 22 21 21 21 21 20 20 20 20 19 19 19 19 19 19
33 31 32 33 33 33 33 33 32 32 32 30 29 29 31 31 32 31 31 30 30 29 29 28 27 26 25 24 23 22 21 21 21 20 20 20 20 20 19 19 19 19 19 19
32 32 31 32 34 34 34 33 32 31 30 31 30 30 32 32 32 31 30 29 28 28 27 27 26 25 25 24 23 22 21 21 21 20 20 20 20 20 19 19 19 19 19 19
31 30 29 30 32 33 33 33 33 33 32 31 31 30 32 31 31 30 29 28 27 26 26 26 25 25 24 24 23 22 22 21 20 20 20 20 19 19 19 19 19 19 19 19
29 29 29 29 30 31 31 32 33 32 31 31 31 30 31 30 30 29 28 27 26 25 25 25 24 24 24 23 23 22 22 21 21 20 20 20 19 19 19 19 19 19 19 18
29 29 29 30 31 32 31 32 32 32 31 31 31 30 30 30 30 29 28 27 26 25 25 25 24 23 23 23 22 22 21 21 21 20 20 20 19 19 19 19 19 18 18 18
29 28 29 29 31 31 31 31 32 32 32 32 31 30 30 30 29 28 27 26 25 25 24 24 23 23 22 22 22 22 21 21 21 20 20 19 19 19 19 18 18 18 18 18
28 27 27 28 30 30 29 31 31 31 31 31 30 30 30 29 28 27 27 26 25 24 24 23 23 22 22 21 21 21 21 20 20 20 19 19 19 19 19 18 18 18 18 17
26 26 26 27 28 27 29 31 31 31 30 31 30 30 29 28 27 26 25 25 24 23 23 22 22 22 21 21 21 20 20 20 20 19 19 19 19 18 18 18 18 17 17 17
27 25 26 27 27 27 29 30 30 29 29 30 29 29 28 27 26 25 24 24 23 23 22 22 22 22 21 21 20 20 19 19 19 19 19 18 18 18 18 18 17 17 17 17
27 26 25 26 26 26 27 28 29 29 27 28 28 27 26 26 26 24 23 22 22 22 21 21 21 21 21 20 20 19 19 19 19 18 18 18 18 18 18 18 17 17 17 17
25 25 25 25 25 26 26 27 28 26 25 26 26 25 25 24 23 22 22 21 21 21 20 20 20 20 20 20 19 19 19 18 18 18 18 18 18 17 17 17 17 17 17 16
25 25 25 25 24 24 25 26 24 23 24 24 24 23 22 22 21 21 21 20 20 20 19 19 19 19 19 19 19 18 18 18 18 18 17 17 17 17 17 17 17 16 16 16
24 24 24 24 23 23 23 23 23 23 23 23 23 22 21 21 20 20 19 19 19 19 18 18 18 18 18 18 18 18 18 18 18 17 17 17 17 16 16 16 16 16 16 15
23 24 23 22 23 23 22 22 22 22 22 21 21 21 20 20 19 19 18 18 18 18 17 17 17 17 17 17 17 17 17 17 17 17 17 16 16 16 16 16 16 15 15 15
22 22 22 21 22 22 21 21 21 21 21 20 20 20 19 19 18 18 17 17 17 17 17 16 17 17 17 17 17 17 17 16 16 16 16 16 16 16 16 15 15 15 15 15
22 21 21 20 20 20 20 20 20 20 20 19 19 19 19 18 18 17 17 16 16 16 16 16 16 16 16 16 16 16 16 16 16 16 15 15 15 15 15 15 15 15 15 15
Wind_Speed
15 14 13 12 11 9 10 8 8 7 5 5 5 8 11 13 13 13 13 13 13 13 14 14 13 14 13 11 10 9 8 8 6 4 4 4 3 3 3 3 5 5 4 4
16 17 15 13 12 10 10 10 8 5 4 4 4 5 8 9 12 13 14 14 14 13 13 13 12 12 13 12 11 10 8 8 8 6 4 3 3 3 3 2 4 4 4 4
19 15 12 14 14 12 11 10 7 6 8 8 6 6 5 6 7 11 13 14 15 15 15 14 12 12 13 13 12 11 10 9 9 7 5 4 3 2 2 4 3 3 4 5
18 16 13 14 14 13 12 10 9 10 10 8 7 5 4 5 5 9 11 13 15 15 15 14 13 13 13 13 12 10 10 9 8 7 6 6 5 3 3 3 4 4 4 4
18 17 15 15 14 13 12 11 11 11 11 9 9 5 5 7 7 8 8 11 13 14 15 15 15 13 12 13 12 11 10 9 9 8 6 5 4 4 3 3 4 4 4 3
18 15 15 16 14 13 12 12 12 12 12 12 10 9 6 6 6 6 7 8 10 12 13 14 14 12 11 11 11 11 11 9 9 8 7 6 5 4 3 3 4 4 4 4
19 18 15 14 15 14 14 12 10 11 10 10 9 9 3 8 8 8 9 9 10 10 12 12 13 13 11 11 11 11 11 10 9 9 8 7 6 5 5 5 5 4 3 4
18 17 18 15 15 15 15 16 13 11 10 7 6 7 3 6 7 7 9 10 11 9 10 12 12 12 11 12 11 12 11 10 10 9 8 7 6 6 5 5 4 4 2 3
14 15 16 17 15 16 16 16 16 14 13 10 7 5 3 4 7 7 7 8 10 10 10 12 12 12 11 11 10 10 10 9 9 9 8 6 6 5 5 4 4 3 2 3
15 12 12 13 14 16 17 15 11 12 10 11 9 8 5 6 6 6 7 7 7 9 10 12 12 11 11 11 10 10 9 8 7 7 8 8 7 6 4 4 5 3 3 2
15 13 13 12 14 15 15 16 12 10 11 11 8 3 2 5 5 5 5 5 5 7 7 9 10 10 10 11 11 10 10 9 8 7 6 5 6 6 6 4 4 4 4 3
12 12 14 14 13 15 16 15 14 11 10 11 9 4 4 4 6 6 6 8 6 5 5 7 8 7 7 8 10 10 9 9 8 7 7 6 6 6 6 6 5 5 4 5
7 9 13 15 14 14 15 15 15 14 12 11 11 3 6 5 5 7 9 9 8 4 4 7 7 6 6 6 6 8 8 9 8 8 7 7 7 7 7 6 6 5 5 5
5 10 14 15 10 9 13 15 15 14 12 11 10 5 5 6 6 6 8 9 8 5 4 6 6 5 5 5 5 5 6 7 7 7 7 7 7 6 6 6 6 6 6 5
7 12 15 17 15 13 13 15 15 15 14 13 8 4 4 5 6 6 7 7 8 5 4 5 5 5 5 5 5 4 4 5 6 6 7 6 6 6 6 6 5 5 6 6
7 10 13 16 17 15 15 14 14 15 14 14 10 4 4 6 6 5 6 7 7 4 5 4 4 4 4 3 4 4 4 4 4 6 6 6 6 5 5 5 6 5 5 5
7 7 11 14 15 15 17 14 13 11 9 9 8 3 4 5 5 3 4 5 5 4 4 3 2 3 3 3 2 3 4 4 4 4 4 5 6 6 6 6 6 6 6 5
7 6 7 12 13 16 10 8 9 8 6 4 2 2 4 5 5 4 4 5 5 3 2 2 1 1 2 2 2 1 3 4 4 5 5 6 6 6 5 5 5 5 5 5
7 5 8 11 14 14 8 6 6 6 5 2 1 1 4 6 5 5 6 5 4 3 2 1 1 0 1 1 2 2 3 4 5 5 4 5 5 5 5 6 5 5 5 5
10 7 9 10 12 12 3 3 4 6 5 3 2 3 3 3 1 3 5 5 5 4 3 2 2 1 1 1 2 4 4 4 4 4 4 4 5 6 6 5 5 4 4 4
11 10 12 13 13 7 3 6 6 6 1 5 4 5 4 5 4 4 4 5 4 4 4 4 4 2 1 0 1 3 3 3 3 3 4 5 5 5 5 5 5 4 4 4
8 8 10 11 12 5 8 5 5 5 6 6 5 6 7 6 5 4 5 5 5 4 5 5 4 4 2 1 1 2 3 2 2 3 4 4 5 5 5 5 5 5 5 5
5 3 3 2 0 5 8 7 6 5 6 6 5 6 5 4 3 4 5 5 5 5 5 5 4 4 3 2 1 2 2 2 3 3 4 4 4 4 5 6 6 5 5 6
3 3 3 3 2 4 5 5 5 6 5 6 5 4 4 4 4 4 4 4 4 4 4 4 4 4 4 3 2 2 1 2 3 3 3 3 4 4 4 4 5 5 5 5
4 3 4 4 3 3 4 6 6 5 4 4 5 4 3 3 3 3 3 3 3 3 3 4 4 3 4 4 2 2 2 2 3 3 3 3 4 4 4 3 2 3 2 2
5 4 5 4 4 4 4 5 7 6 4 4 4 4 4 3 3 3 2 3 3 3 3 3 4 5 5 5 3 3 2 2 2 3 3 3 3 3 4 4 2 4 3 5
Wind_Direction
232 237 242 249 242 229 246 256 244 239 217 213 188 174 173 178 176 169 169 171 172 175 172 169 168 165 161 158 161 169 179 166 171 184 191 186 184 190 179 179 166 168 187 195
239 234 241 259 268 251 248 254 248 249 233 236 211 191 183 190 184 171 171 173 175 175 168 166 169 169 165 163 166 170 179 175 179 182 191 192 194 192 179 168 149 171 180 194
238 238 228 241 252 254 253 254 257 259 253 244 232 217 201 201 205 174 176 177 178 177 172 169 172 175 170 169 173 181 179 176 185 180 186 195 177 211 177 157 161 174 178 197
239 245 243 245 246 247 253 257 251 252 256 260 249 242 206 183 233 201 184 179 178 177 173 171 176 179 178 174 176 171 170 173 177 183 196 194 189 190 190 169 159 169 182 191
239 237 240 243 246 249 254 266 266 262 267 270 269 263 230 175 208 215 200 188 178 174 174 173 179 181 180 176 172 168 167 171 176 186 193 200 203 191 179 167 161 171 180 186
249 242 237 245 248 251 261 264 264 262 264 258 252 251 211 184 183 194 202 198 172 170 169 169 172 170 175 171 166 164 165 171 176 184 190 194 202 196 180 175 174 186 180 183
241 243 235 238 246 241 243 249 249 246 246 256 271 259 182 160 167 179 184 178 163 164 163 162 163 164 166 166 165 164 166 173 178 183 189 190 200 199 195 199 197 198 188 178
229 230 228 224 233 246 239 242 247 255 257 263 277 265 199 168 158 152 149 154 152 161 161 160 165 164 166 168 166 165 167 174 180 184 187 188 192 200 203 208 205 202 204 181
244 236 222 217 223 238 244 244 251 255 259 261 249 249 203 173 157 149 139 142 145 153 162 158 162 162 164 165 162 164 164 172 181 182 180 186 193 204 202 187 204 206 194 189
257 264 245 215 216 230 243 251 255 257 261 264 245 235 215 188 170 144 140 137 135 146 157 158 162 163 163 165 163 160 160 167 174 179 186 190 193 197 192 199 198 198 188 184
248 257 255 231 215 230 230 241 252 264 267 265 262 245 189 165 137 141 134 124 122 130 141 150 153 157 160 162 163 165 162 167 178 185 186 186 187 190 190 198 197 190 186 186
241 251 253 246 228 233 239 238 241 247 260 272 274 229 171 135 139 142 127 103 86 88 114 130 134 143 155 164 164 161 165 174 179 180 181 186 183 185 189 194 195 190 187 194
265 251 250 246 236 225 235 241 243 245 250 255 262 225 140 134 116 108 105 105 97 86 100 106 118 137 145 151 156 161 169 175 179 177 179 183 185 187 191 190 189 187 186 188
282 254 252 250 246 237 231 238 246 248 251 251 249 208 167 125 110 103 107 113 119 116 98 104 116 123 131 134 130 147 170 172 172 170 173 176 185 185 187 190 187 183 180 181
255 251 254 261 263 263 250 239 241 244 255 264 265 221 170 134 130 123 123 118 115 112 100 91 106 116 122 121 132 147 162 162 166 168 175 174 179 179 179 182 178 179 181 180
234 263 265 260 258 259 262 249 241 244 248 252 254 232 126 98 102 115 121 114 106 101 90 82 86 104 117 125 148 153 155 154 158 172 181 172 172 174 174 174 174 177 182 174
240 236 259 260 256 257 252 253 248 247 255 261 260 200 123 105 100 87 98 114 107 96 86 79 68 100 119 131 143 168 162 161 166 175 177 166 170 179 175 183 180 178 181 179
255 258 255 257 259 253 254 266 260 251 250 263 235 149 118 106 96 72 73 90 91 86 88 70 50 87 119 137 142 198 183 169 180 187 186 178 177 181 174 178 186 186 182 184
238 244 251 254 252 248 237 249 264 261 256 295 292 55 99 112 108 91 67 63 75 54 46 35 336 324 92 138 148 172 204 193 196 197 193 183 177 183 180 184 190 190 189 189
221 219 242 251 257 261 261 302 293 272 232 22 39 57 54 68 156 81 48 35 46 36 22 358 340 0 51 84 159 186 207 201 205 201 193 182 180 188 190 188 188 188 189 191
210 215 230 245 252 255 358 334 284 250 331 22 42 59 58 36 27 51 35 40 43 34 14 3 354 353 12 56 221 201 202 206 201 195 191 186 185 192 188 180 183 182 184 180
231 231 229 244 251 256 12 16 17 40 33 37 45 56 62 54 50 40 31 29 32 25 14 6 5 359 353 326 249 223 209 198 186 191 184 185 185 199 194 181 185 187 184 183
254 295 303 315 10 66 47 54 36 33 32 31 42 49 55 50 41 31 26 19 18 18 11 1 355 352 354 346 307 259 223 195 197 196 193 191 191 191 186 185 193 197 198 201
268 332 317 329 60 50 44 44 25 17 18 19 28 34 40 24 20 19 13 10 4 2 359 355 355 354 351 346 335 313 252 210 207 210 207 198 187 191 187 185 195 199 204 209
323 306 279 278 302 330 12 7 359 1 359 7 11 19 25 4 356 360 359 355 347 345 350 351 346 345 341 340 345 336 308 232 217 216 207 205 199 187 165 171 186 191 186 204
281 292 278 291 351 332 332 347 336 334 349 360 355 349 353 344 328 331 335 342 340 336 343 347 344 340 337 337 338 335 314 234 217 221 214 213 203 181 172 162 129 61 102 95
Height
1476 1477 1477 1472 1467 1470 1472 1477 1480 1473 1464 1467 1472 1477 1480 1481 1486 1490 1496 1502 1507 1511 1515 1519 1522 1525 1528 1530 1531 1534 1536 1537 1538 1540 1542 1543 1544 1545 1546 1547 1547 1548 1548 1549
1475 1475 1469 1465 1464 1466 1469 1476 1476 1470 1463 1466 1471 1475 1475 1477 1480 1486 1491 1497 1503 1508 1512 1516 1520 1523 1525 1527 1529 1532 1534 1535 1537 1539 1540 1542 1543 1544 1545 1546 1546 1547 1547 1548
1475 1468 1465 1466 1467 1468 1469 1472 1473 1473 1466 1463 1470 1479 1477 1477 1479 1483 1488 1493 1498 1504 1508 1513 1517 1520 1523 1525 1527 1530 1531 1533 1535 1537 1539 1541 1542 1543 1544 1545 1545 1545 1546 1546
1467 1463 1463 1466 1467 1467 1473 1462 1465 1468 1473 1475 1473 1494 1484 1480 1483 1481 1484 1488 1493 1499 1505 1510 1514 1517 1520 1523 1525 1527 1529 1531 1533 1535 1537 1539 1540 1541 1542 1543 1544 1544 1545 1545
1465 1462 1464 1467 1464 1462 1465 1459 1461 1464 1470 1478 1475 1488 1491 1480 1486 1483 1483 1485 1489 1495 1500 1506 1510 1514 1518 1521 1523 1525 1527 1529 1531 1533 1535 1537 1539 1540 1541 1542 1543 1543 1543 1544
1459 1456 1458 1460 1459 1460 1459 1462 1464 1465 1472 1491 1481 1486 1493 1481 1482 1481 1481 1484 1486 1491 1497 1502 1507 1511 1515 1518 1521 1523 1524 1526 1529 1531 1533 1535 1537 1538 1540 1541 1541 1542 1542 1543
1465 1458 1455 1458 1462 1461 1463 1475 1490 1495 1496 1497 1478 1480 1482 1472 1471 1474 1477 1482 1484 1490 1494 1499 1504 1508 1512 1516 1518 1520 1522 1524 1526 1528 1530 1532 1534 1536 1537 1539 1540 1541 1541 1541
1471 1470 1456 1455 1461 1465 1464 1470 1491 1505 1505 1497 1487 1489 1476 1466 1467 1469 1473 1478 1482 1488 1492 1496 1501 1506 1509 1513 1516 1518 1519 1522 1524 1526 1528 1530 1532 1534 1535 1537 1538 1539 1540 1540
1463 1463 1448 1450 1454 1459 1466 1466 1461 1476 1485 1498 1494 1484 1472 1464 1466 1468 1471 1476 1480 1485 1489 1493 1499 1503 1507 1510 1513 1515 1517 1519 1522 1524 1526 1528 1530 1532 1533 1535 1536 1537 1538 1539
1455 1463 1450 1447 1452 1454 1457 1459 1465 1476 1495 1504 1497 1489 1482 1475 1469 1468 1471 1475 1479 1483 1487 1491 1497 1501 1505 1508 1511 1513 1515 1517 1519 1521 1523 1525 1527 1529 1531 1532 1534 1535 1536 1536
1453 1464 1459 1451 1457 1461 1460 1463 1466 1469 1474 1491 1501 1497 1471 1468 1467 1470 1473 1476 1480 1483 1487 1489 1495 1500 1503 1506 1508 1511 1513 1515 1517 1519 1520 1523 1524 1526 1528 1529 1530 1532 1533 1533
1453 1459 1464 1455 1446 1448 1452 1457 1463 1479 1480 1476 1484 1488 1462 1464 1466 1470 1474 1478 1483 1484 1487 1490 1493 1497 1502 1505 1507 1508 1510 1513 1515 1516 1518 1520 1522 1523 1525 1526 1527 1529 1530 1531
1457 1464 1475 1471 1460 1452 1453 1453 1454 1459 1467 1475 1483 1484 1462 1466 1468 1472 1476 1480 1484 1487 1488 1490 1494 1497 1500 1503 1505 1507 1509 1511 1513 1514 1515 1517 1518 1520 1522 1523 1524 1526 1527 1528
1462 1464 1471 1476 1466 1456 1458 1456 1454 1459 1469 1474 1473 1476 1468 1468 1471 1474 1478 1482 1485 1488 1489 1491 1493 1495 1498 1501 1503 1505 1507 1509 1510 1511 1512 1514 1515 1517 1519 1521 1522 1523 1524 1525
1462 1467 1464 1458 1452 1452 1454 1455 1455 1459 1462 1468 1467 1468 1469 1469 1472 1476 1479 1483 1486 1489 1490 1492 1494 1495 1497 1499 1501 1503 1506 1507 1508 1509 1510 1511 1513 1514 1516 1518 1520 1521 1522 1523
1462 1467 1465 1463 1453 1452 1455 1451 1452 1455 1455 1458 1462 1467 1464 1469 1474 1477 1480 1483 1486 1489 1491 1493 1494 1495 1497 1498 1500 1501 1504 1505 1506 1507 1508 1509 1511 1512 1514 1515 1517 1518 1520 1521
1463 1469 1473 1470 1457 1456 1464 1454 1452 1454 1454 1457 1464 1466 1466 1471 1476 1479 1480 1483 1486 1489 1492 1493 1495 1495 1496 1498 1499 1500 1502 1503 1505 1506 1507 1507 1508 1510 1511 1513 1513 1514 1516 1518
1469 1471 1471 1470 1469 1481 1460 1447 1448 1452 1455 1456 1460 1464 1467 1473 1478 1481 1483 1485 1487 1490 1491 1493 1495 1495 1496 1497 1498 1500 1501 1502 1503 1503 1505 1505 1506 1507 1508 1510 1511 1512 1513 1515
1465 1470 1473 1472 1473 1469 1457 1453 1451 1456 1460 1458 1462 1465 1469 1474 1478 1482 1485 1486 1488 1490 1491 1493 1494 1495 1495 1496 1496 1498 1499 1500 1500 1501 1502 1503 1504 1505 1505 1507 1508 1510 1511 1512
1462 1467 1474 1472 1478 1479 1466 1455 1455 1459 1467 1464 1466 1470 1474 1475 1479 1485 1487 1487 1488 1490 1491 1491 1493 1493 1494 1494 1495 1495 1496 1496 1497 1498 1499 1500 1501 1502 1502 1504 1505 1506 1508 1509
1466 1469 1473 1474 1475 1469 1463 1460 1459 1473 1478 1470 1471 1474 1477 1480 1484 1487 1487 1487 1489 1489 1490 1490 1491 1492 1492 1492 1492 1492 1493 1493 1494 1495 1496 1497 1498 1499 1500 1501 1502 1503 1504 1505
1466 1467 1470 1471 1477 1479 1468 1466 1472 1477 1476 1475 1476 1478 1480 1483 1485 1487 1488 1488 1489 1489 1489 1489 1489 1489 1490 1489 1489 1489 1489 1490 1491 1491 1492 1493 1494 1496 1497 1498 1499 1500 1501 1502
1464 1468 1469 1472 1477 1476 1474 1475 1478 1478 1479 1479 1480 1481 1483 1485 1486 1487 1488 1489 1489 1489 1489 1488 1488 1487 1487 1487 1487 1487 1487 1487 1488 1488 1489 1489 1490 1492 1494 1495 1496 1497 1498 1498
1467 1468 1470 1474 1474 1475 1477 1479 1481 1481 1481 1482 1482 1483 1484 1486 1487 1488 1489 1489 1489 1489 1488 1487 1486 1486 1485 1485 1484 1484 1484 1484 1485 1485 1486 1487 1488 1489 1490 1491 1492 1493 1494 1495
1473 1474 1473 1476 1478 1479 1480 1481 1482 1483 1483 1483 1484 1484 1485 1486 1488 1488 1488 1488 1488 1488 1487 1486 1485 1484 1483 1483 1482 1481 1481 1481 1481 1482 1483 1484 1485 1485 1486 1487 1488 1489 1490 1491
1474 1476 1478 1480 1481 1482 1484 1484 1484 1484 1484 1484 1485 1485 1486 1487 1487 1487 1487 1487 1486 1486 1485 1484 1483 1483 1482 1480 1479 1479 1478 1478 1478 1479 1480 1481 1482 1482 1483 1484 1485 1485 1487 1487